Flag for Sweden Weather past 2 weeks in Växjö, Sweden

Now
57 °F

Partly cloudy.


Feels Like: 56 °F
Forecast: 48 / 65 °F
Wind: 6 mph from Southwest

Location: Vaxjo Airport

Current Time: Sep 2, 2015 at 4:58:21 AM

Latest Report: Sep 2, 2015 at 4:20 AM


Visibility: N/A

Pressure: 29.68 "Hg

Humidity: 94%

Dew point: 55 °F

Location of VäxjöLocation

Historic Weather in Växjö — Graph

°F

Växjö temperature yesterday

Maximum temperature yesterday: 64 °F (at 10:20 PM)
Minimum temperature yesterday: 55 °F (at 12:50 AM)
Average temperature yesterday: 61 °F

Past Weeks' High & Low Weather Summary

 TemperatureHumidityPressure
High75 °F (Aug 20, 2:20 PM)100% (Aug 19, 6:20 AM)30.42 "Hg (Aug 19, 6:20 AM)
Low41 °F (Aug 21, 5:50 AM)33% (Aug 18, 4:20 PM)29.65 "Hg (Sep 1, 8:20 AM)
Average61 °F76%30.06 "Hg
* Reported Aug 18 3:20 AM — Sep 2 3:50 AM, Växjö, Weather by CustomWeather, © 2015

Note: Actual official high and low records may vary slightly from our data, if they occured in-between our weather recording intervals... More about our weather records

Advertising

Växjö weather history for previous 24 hours

 ConditionsComfort  
Time TempWeatherWind HumidityBarometerVisibility
3:50 AM
Wed, Sep 2
57 °FPartly cloudy.8 mph94%29.68 "HgN/A
3:20 AM57 °FPartly cloudy.9 mph94%29.68 "HgN/A
2:50 AM59 °FPartly cloudy.9 mph94%29.65 "HgN/A
2:20 AM59 °FPassing clouds.8 mph94%29.65 "HgN/A
1:50 AM59 °FPartly cloudy.12 mph100%29.65 "Hg2 mi
1:20 AM61 °FPartly cloudy.8 mph94%29.65 "HgN/A
12:50 AM61 °FPartly cloudy.12 mph94%29.65 "HgN/A
11:20 PM
Tue, Sep 1
63 °FRain. Overcast.12 mph100%29.65 "Hg4 mi
10:50 PM64 °FHeavy rain. Dense fog.3 mph94%29.65 "Hg2 mi
10:20 PM64 °FFog.3 mph94%29.65 "Hg2 mi
9:50 PM63 °FDrizzle. Mostly cloudy.2 mph100%29.65 "Hg3 mi
9:20 PM63 °FRain. Low clouds.3 mph100%29.65 "Hg2 mi
8:50 PM63 °FRain. Low clouds.3 mph100%29.65 "Hg3 mi
8:20 PM63 °FDrizzle. Mostly cloudy.3 mph100%29.65 "Hg3 mi
7:50 PM63 °FFog.3 mph100%29.68 "Hg3 mi
7:20 PM63 °FFog.3 mph100%29.65 "Hg4 mi
6:50 PM63 °FDrizzle. Fog.3 mph100%29.65 "Hg2 mi
6:20 PM63 °FFog.3 mph100%29.68 "Hg2 mi
5:50 PM63 °FDrizzle. Fog.3 mph100%29.68 "Hg1 mi
5:20 PM63 °FFog.3 mph100%29.68 "Hg1 mi
4:50 PM63 °FFog.2 mph100%29.68 "Hg1 mi
4:20 PM63 °FFog.2 mph100%29.68 "Hg2 mi
3:50 PM63 °FFog.2 mph94%29.68 "Hg3 mi
3:20 PM63 °FFog.5 mph100%29.68 "Hg6 mi
2:50 PM63 °FPartly sunny.5 mph94%29.68 "HgN/A
2:20 PM63 °FFog.6 mph94%29.65 "Hg4 mi
1:50 PM63 °FFog.6 mph94%29.68 "Hg4 mi
1:20 PM63 °FFog.6 mph94%29.68 "Hg3 mi
12:50 PM61 °FFog.6 mph100%29.68 "Hg2 mi
12:20 PM61 °FFog.6 mph100%29.68 "Hg3 mi
11:50 AM61 °FFog.6 mph94%29.65 "Hg4 mi
11:20 AM61 °FFog.7 mph94%29.65 "Hg4 mi
10:50 AM61 °FFog.7 mph94%29.68 "Hg5 mi
10:20 AM61 °FPartly sunny.8 mph94%29.65 "HgN/A
9:50 AM61 °FFog.5 mph94%29.68 "Hg6 mi
9:21 AM61 °FLow clouds.6 mph94%29.68 "HgN/A
8:50 AM59 °FLow clouds.6 mph100%29.65 "HgN/A
8:20 AM59 °FLow clouds.7 mph100%29.65 "HgN/A
7:50 AM59 °FLow clouds.6 mph94%29.68 "HgN/A
7:20 AM59 °FLow clouds.8 mph94%29.68 "HgN/A
6:50 AM59 °FDrizzle. Low clouds.8 mph94%29.68 "HgN/A
5:50 AM57 °FPassing clouds.8 mph100%29.68 "HgN/A
4:50 AM57 °FPassing clouds.7 mph94%29.71 "HgN/A
4:20 AM57 °FRain. Passing clouds.7 mph94%29.77 "HgN/A
Weather by CustomWeather, © 2015

See weather overviewHow to use our weather pages